sat.trackr.live / text

‹ back to catalog

STARLINK-5453

NORAD 54773 · 2022-175R

PAYLOAD ACTIVE UNKNOWN

§ Identity

Operator
Country
US
Launch date
2022-12-17
Launch site
AFETR
Launch vehicle
Mass (kg)
RCS (m²)

Purposes: comms

External: N2YO · Heavens-Above · Gunter

§ Orbital elements

Epoch: 2026-09-20T11:23:43.477728Z

Period
93.85 min
Inclination
53.1605°
Eccentricity
0.0001381
Mean motion
15.34390832 rev/d
Perigee alt
461.8 km
Apogee alt
463.7 km
Semi-major
6,840.9 km
B*
2.1955e-5
RAAN
237.9043°
Arg perigee
86.4590°
Mean anomaly
273.6570°
Rev number
20,948

§ Raw data

STARLINK-54531 54773U 22175R   26263.47480877  .00000365  00000+0  21955-4 0  99962 54773  53.1605 237.9043 0001381  86.4590 273.6570 15.34390832209482

JSON: /api/v1/satellites/54773 · /tle

For live sub-satellite position, see the globe view (requires WebGL).

§ Visibility from observer

Set your observer location to see the next 7 days of passes ≥ 10°. The values pass through the URL so the page stays shareable.

No JS? Fill the form by hand. The geolocation button needs JavaScript.